#timestamp,LO_Frequency,Hit,StdDev 
1559898015.8,286046999.8,N
1559898035.6,286047002.3,N
1559898055.5,286046999.7,N
1559898075.3,286047002.2,N
1559898095.1,286047001.3,N
1559898115.9,286047001.8,N
1559898135.7,286047004.3,Y
1559898155.6,286047002.5,P
1559898175.4,286047001.6,N
1559898195.2,286047004.4,P
1559898215.1,286047004.0,N
1559898216.0,286047004.0,N
1559898235.8,286047004.1,N
1559898255.6,286047003.5,N
1559898275.5,286047006.0,Y
1559898295.3,286047000.7,P
1559898315.2,286047001.0,N
1559898335.9,286047002.4,N
1559898355.7,286047002.6,N
1559898375.6,286047002.0,N
1559898395.4,286047003.6,Y
1559898415.2,286047002.1,P
1559898435.1,286047001.0,P
1559898436.0,286047001.0,N
1559898455.8,286047000.4,N
1559898475.7,286046998.6,N
1559898495.5,286047001.0,N
1559898515.3,286047000.3,N
1559898535.2,286047000.3,N
1559898555.0,286047011.9,Y
1559898555.9,286047002.6,P
1559898575.8,286047001.0,N
1559898595.6,286047000.8,N
1559898615.4,286047001.1,N
1559898635.3,286047001.2,N
1559898655.1,286046996.8,Y
1559898675.8,286046997.3,P
1559898695.7,286046998.0,N
1559898715.5,286046997.8,N
1559898735.4,286046994.9,Y
1559898755.2,286046999.3,P
1559898775.0,286046999.5,N
1559898775.9,286046999.5,N
1559898795.8,286046996.6,Y
1559898815.6,286046999.2,P
1559898835.5,286046999.4,P
1559898855.3,286046997.0,P
1559898875.1,286046996.6,Y
1559898895.9,286046998.1,P
1559898915.7,286046999.0,P
1559898935.5,286047001.1,N
1559898955.4,286046998.3,N
1559898975.2,286047000.4,N
1559898995.1,286047001.9,N
1559898996.0,286047001.9,N
1559899015.8,286047004.4,N
1559899035.6,286047002.5,N
1559899055.5,286047001.9,N
1559899075.3,286047001.3,N
1559899095.1,286047001.6,N
1559899115.9,286047004.4,N
1559899135.7,286047001.4,N
1559899155.6,286047001.8,N
1559899175.4,286047001.9,N
1559899195.2,286047004.4,N
1559899215.1,286047002.1,N
1559899216.0,286047002.1,N
1559899235.8,286047001.4,N
1559899255.6,286047002.5,N
1559899275.5,286047000.0,N
1559899295.3,286047000.1,N
1559899315.2,286047002.3,N
1559899335.9,286047000.4,N
1559899355.7,286047002.7,N
1559899375.6,286047000.8,N
1559899395.4,286047002.4,N
1559899415.2,286047001.3,N
1559899435.1,286047001.8,N
1559899436.0,286047001.8,N
1559899455.8,286047001.4,N
1559899475.7,286047002.7,N
1559899495.5,286047002.0,N
1559899515.3,286047004.4,Y
1559899535.2,286047000.5,P
1559899555.0,286047001.0,N
1559899555.9,286047001.0,N
1559899575.7,286047000.3,N
1559899595.6,286047000.5,N
1559899615.4,286047000.6,N
1559899635.3,286046999.9,N
1559899655.1,286047000.6,N
1559899656.0,286047000.6,N
1559899675.8,286047000.6,N
1559899695.7,286047000.9,N
1559899715.5,286047000.9,N
1559899735.3,286047000.5,N
1559899755.2,286047002.7,Y
1559899775.0,286047000.4,P
1559899775.9,286047000.4,N
1559899795.8,286047002.8,P
1559899815.6,286046999.7,N
1559899835.4,286047002.8,N
1559899855.3,286047001.5,N
1559899875.1,286047001.5,N
1559899895.9,286047004.0,Y
1559899915.7,286047000.4,P
1559899935.5,286047000.1,N
1559899955.4,286047002.6,P
1559899975.2,286047001.4,N
1559899995.0,286046999.8,N
1559899995.9,286046999.8,N
1559900015.8,286046999.8,N
1559900035.6,286047001.9,N
1559900055.4,286047000.5,N
1559900075.3,286046999.8,N
1559900095.1,286047001.6,N
1559900115.9,286047001.8,N
1559900135.7,286047002.4,N
1559900155.5,286047000.5,N
1559900175.4,286046999.7,N
1559900195.2,286047000.5,N
1559900215.0,286047002.5,N
1559900215.9,286047002.5,N
1559900235.8,286046999.7,N
1559900255.6,286047001.0,N
1559900275.5,286047000.4,N
1559900295.3,286047002.3,N
1559900315.1,286047000.7,N
1559900335.9,286047000.7,N
1559900355.7,286046998.2,N
1559900375.5,286047000.7,N
1559900395.4,286047000.8,N
1559900415.2,286047001.1,N
1559900435.1,286046998.4,N
1559900436.0,286046998.4,N
1559900455.8,286046998.1,N
1559900475.6,286047000.6,N
1559900495.5,286047002.8,N
1559900515.3,286047000.1,N
1559900535.1,286046998.5,N
1559900555.9,286046996.5,N
1559900575.7,286046997.0,N
1559900595.5,286046999.3,N
1559900615.4,286046999.3,N
1559900635.2,286047001.1,N
1559900655.1,286047000.8,N
1559900656.0,286047000.8,N
1559900675.8,286047001.0,N
1559900695.6,286047000.6,N
1559900715.5,286046998.7,N
1559900735.3,286047001.2,N
1559900755.1,286047000.8,N
1559900775.9,286047001.2,N
1559900795.7,286047001.1,N
1559900815.6,286047000.7,N
1559900835.4,286047001.0,N
1559900855.2,286047000.2,N
1559900875.1,286047000.5,N
1559900876.0,286047000.5,N
1559900895.8,286047000.4,N
1559900915.6,286047002.3,N
1559900935.5,286047001.1,N
1559900955.3,286046996.6,N
1559900975.2,286046995.4,N
1559900995.9,286046995.1,N
1559901015.7,286046997.9,N
1559901035.6,286046995.5,N
1559901055.4,286046996.3,N
1559901075.2,286046994.5,N
1559901095.1,286046994.2,N
1559901096.0,286046994.2,N
1559901115.8,286046993.9,N
1559901135.7,286046993.7,N
1559901155.5,286046994.6,N
1559901175.3,286046994.3,N
1559901195.2,286046992.8,N
1559901215.0,286046994.6,N
1559901215.9,286046994.6,N
1559901235.7,286046993.9,N
1559901255.6,286046991.7,N
1559901275.4,286046992.2,N
1559901295.3,286046993.8,N
1559901315.1,286046993.6,N
1559901335.8,286046994.7,N
1559901355.7,286046994.0,N
1559901375.5,286046991.9,N
1559901395.4,286046991.9,N
1559901415.2,286046992.0,N
1559901435.0,286046991.9,N
1559901435.9,286046991.9,Y
1559901455.8,286046996.3,P
1559901475.6,286046993.4,P
1559901495.4,286046993.4,P
1559901515.3,286046986.3,Y
1559901535.1,286046999.8,P
1559901555.9,286046999.7,N
1559901575.7,286047004.2,N
1559901595.5,286047003.6,N
